Regional Weather Roundup
Issued by NWS

Home | Current Version | Previous Version | Text Only | Print | Product List | Glossary On
Versions: 1 2 3 4 5 6 7 8 9 10 11 12 13 14 15 16 17 18 19 20 21 22 23 24 25 26 27 28 29 30 31 32 33 34 35 36 37 38 39 40 41 42 43 44 45 46 47 48 49 50
000
ASUS46 KPQR 240410
RWROR

OREGON REGIONAL WEATHER ROUNDUP
NATIONAL WEATHER SERVICE PORTLAND OR
900 PM PDT TUE AUG 23 2016

NOTE: "FAIR" INDICATES FEW OR NO CLOUDS BELOW 12,000 FEET WITH
NO SIGNIFICANT WEATHER AND/OR OBSTRUCTIONS TO VISIBILITY.

ORZ001>013-240500-
NORTHWEST OREGON


CITY           SKY/WX    TMP DP  RH WIND       PRES   REMARKS
ASTORIA        CLEAR     60  51  72 S6        30.18R
NEWPORT        CLEAR     54  50  87 N7        30.18R
PORTLAND       PTCLDY    76  49  38 NW9       30.11R
VANCOUVER WA   CLEAR     75  49  39 NW7       30.10R
SCAPPOOSE      CLEAR     75  49  39 NW10      30.10R
HILLSBORO      CLEAR     71  49  45 NW9       30.12R
AURORA         CLEAR     72  47  40 CALM      30.12R
MCMINNVILLE    CLEAR     75  46  35 N7        30.12R
SALEM          CLEAR     72  51  47 NW7       30.10R
CORVALLIS        N/A     70  52  52 W12       30.12S
EUGENE         CLEAR     68  43  40 N9        30.11R
$$

ORZ021-028-240500-
SOUTHWEST OREGON


CITY           SKY/WX    TMP DP  RH WIND       PRES   REMARKS
NORTH BEND     CLEAR     54  52  94 NW9       30.16R
BROOKINGS      LGT RAIN  51  51 100 SE6       30.10R VSB 1/2
ROSEBURG       CLEAR     78  47  33 N5        30.09R
SEXTON SUMMIT  CLEAR     64  32  30 N14G22    30.19R
MEDFORD        CLEAR     80  29  15 NW3       30.07R
$$

ORZ014>016-041-240500-
COLUMBIA GORGE


CITY           SKY/WX    TMP DP  RH WIND       PRES   REMARKS
TROUTDALE      CLEAR     73  49  42 SW6       30.09R
THE DALLES     CLEAR     73  44  35 S3        30.07R
$$

ORZ029>031-041-044-049-050-061>064-502-503-505>511-240500-
EASTERN OREGON


CITY           SKY/WX    TMP DP  RH WIND       PRES   REMARKS
REDMOND        CLEAR     69  30  23 N7        30.17R
BEND             N/A    N/A N/A N/A MISG        N/A
PRINEVILLE     CLEAR     66  34  30 N7        30.18R
KLAMATH FALLS  CLEAR     62  25  24 NW5       30.18R
LAKEVIEW       CLEAR     59  21  23 NW9       30.21R
HERMISTON      CLEAR     66  42  41 S5        30.09R
PENDLETON      CLEAR     64  38  38 NE7       30.12R
JOHN DAY       CLEAR     68  33  27 CALM      30.19R
MEACHAM        CLEAR     53  35  50 CALM      30.23R
LA GRANDE      CLEAR     66  34  30 N6        30.17R
BAKER CITY     CLEAR     58  36  43 NW10      30.18R
BURNS          CLEAR     63  22  20 NW8       30.18R
ROME             N/A     67   6   9 N7        30.13R
ONTARIO        CLEAR     72  36  26 NW10      30.07R
$$



USA.gov is the U.S. government's official web portal to all federal, state and local government web resources and services.